Location: Hermaringen
(48.5952°N, 10.2585°E)
Time: 02:05:21
(UTC+00:00)

Transit 2A Rocket - All Passes

Search period start: 07 February 2026 00:00
Search period end: 17 February 2026 00:00
Orbit: 581 x 902 km, 66.7° (Epoch: 6 February)

Date Brightness Start Highest point End Pass type
(mag) Time Alt. Az. Time Alt. Az. Time Alt. Az.
7 Feb - 00:38:42 10° NNW 00:43:12 23° NNE 00:47:28 10° E night (unlit)
7 Feb - 02:20:53 10° NNW 02:26:37 77° NE 02:31:49 10° SE night (unlit)
7 Feb - 04:04:26 10° WNW 04:08:18 20° WSW 04:11:57 10° SSW night (unlit)
7 Feb - 16:56:57 10° SSE 17:01:52 27° ESE 17:06:51 10° NE visible
7 Feb - 18:37:54 10° SW 18:43:54 68° NW 18:49:55 10° NNE visible
7 Feb - 20:22:47 10° W 20:27:25 22° NNW 20:31:59 10° NNE visible
7 Feb - 22:09:25 10° NNW 22:12:07 13° N 22:14:45 10° NNE visible
7 Feb - 23:53:07 10° NNW 23:56:59 18° NNE 00:00:40 10° ENE night (unlit)
8 Feb - 01:35:17 10° NNW 01:40:51 49° NE 01:45:56 10° ESE night (unlit)
8 Feb - 03:18:06 10° NW 03:23:04 34° WSW 03:27:38 10° S night (unlit)
8 Feb - 16:13:05 10° SE 16:16:39 16° ESE 16:20:14 10° ENE daylight
8 Feb - 17:52:13 10° SSW 17:58:13 81° ESE 18:04:16 10° NE visible
8 Feb - 19:36:05 10° W 19:41:18 29° NW 19:46:28 10° NNE visible
8 Feb - 21:22:37 10° NW 21:25:42 14° NNW 21:28:45 10° NNE visible
8 Feb - 23:07:27 10° NNW 23:10:40 15° NNE 23:13:46 10° NE night (unlit)
9 Feb - 00:49:44 10° NNW 00:54:55 33° NE 00:59:43 10° ESE night (unlit)
9 Feb - 02:32:10 10° NW 02:37:41 57° WSW 02:42:41 10° SSE night (unlit)
9 Feb - 17:06:55 10° S 17:12:41 51° ESE 17:18:30 10° NE visible
9 Feb - 18:49:38 10° WSW 18:55:19 41° NW 19:00:57 10° NNE visible
9 Feb - 20:35:37 10° WNW 20:39:22 17° NNW 20:43:02 10° NNE visible
9 Feb - 22:21:33 10° NNW 22:24:17 13° N 22:26:55 10° NE visible
10 Feb - 00:04:12 10° NNW 00:08:52 24° NNE 00:13:14 10° E night (unlit)
10 Feb - 01:46:25 10° NW 01:52:07 87° NE 01:57:16 10° SE night (unlit)
10 Feb - 03:30:19 10° WNW 03:33:39 17° WSW 03:36:49 10° SW night (unlit)
10 Feb - 16:22:06 10° S 16:27:17 32° ESE 16:32:31 10° NE daylight
10 Feb - 18:03:30 10° SW 18:09:27 60° NW 18:15:24 10° NNE visible
10 Feb - 19:48:40 10° WNW 19:53:05 21° NNW 19:57:27 10° NNE visible
10 Feb - 21:35:16 10° NNW 21:37:51 13° N 21:40:24 10° NNE visible
10 Feb - 23:18:39 10° NNW 23:22:40 19° NNE 23:26:29 10° ENE night (unlit)
11 Feb - 01:00:48 10° NNW 01:06:24 55° NE 01:11:29 10° SE night (unlit)
11 Feb - 02:43:48 10° NW 02:48:27 29° WSW 02:52:47 10° SSW night (unlit)
11 Feb - 15:37:57 10° SSE 15:42:02 19° ESE 15:46:07 10° ENE daylight
11 Feb - 17:17:41 10° SSW 17:23:44 90° NW 17:29:46 10° NE visible
11 Feb - 19:01:53 10° W 19:06:56 27° NW 19:11:55 10° NNE visible
11 Feb - 20:48:32 10° NW 20:51:26 14° N 20:54:17 10° NNE visible
11 Feb - 22:33:02 10° NNW 22:36:22 15° NNE 22:39:36 10° NE visible
12 Feb - 00:15:14 10° NNW 00:20:31 37° NE 00:25:23 10° ESE night (unlit)
12 Feb - 01:57:45 10° NW 02:03:06 49° WSW 02:07:59 10° S night (unlit)
12 Feb - 14:55:34 10° ESE 14:56:54 11° E 14:58:14 10° E daylight
12 Feb - 16:32:16 10° SSW 16:38:08 59° ESE 16:44:03 10° NE daylight
12 Feb - 18:15:21 10° WSW 18:20:54 37° NW 18:26:24 10° NNE visible
12 Feb - 20:01:32 10° NW 20:05:03 16° NNW 20:08:30 10° NNE visible
12 Feb - 21:47:12 10° NNW 21:49:59 13° N 21:52:42 10° NE visible
12 Feb - 23:29:42 10° NNW 23:34:29 26° NNE 23:38:58 10° E night (unlit)
13 Feb - 01:11:58 10° NW 01:17:35 82° WSW 01:22:42 10° SSE night (unlit)
13 Feb - 02:56:21 10° WNW 02:58:58 14° WSW 03:01:29 10° SW night (unlit)
13 Feb - 15:47:18 10° S 15:52:42 36° ESE 15:58:08 10° NE daylight
13 Feb - 17:29:07 10° SW 17:35:00 53° NW 17:40:52 10° NNE visible
13 Feb - 19:14:33 10° WNW 19:18:45 19° NNW 19:22:54 10° NNE visible
13 Feb - 21:01:02 10° NNW 21:03:34 13° N 21:06:03 10° NNE visible
13 Feb - 22:44:09 10° NNW 22:48:19 20° NNE 22:52:16 10° ENE visible
14 Feb - 00:26:17 10° NNW 00:31:55 63° NE 00:37:01 10° SE night (unlit)
14 Feb - 02:09:29 10° NW 02:13:49 24° WSW 02:17:51 10° SSW night (unlit)
14 Feb - 15:02:54 10° SSE 15:07:24 22° ESE 15:11:54 10° ENE daylight
14 Feb - 16:43:12 10° SW 16:49:14 80° NW 16:55:16 10° NE daylight
14 Feb - 18:27:41 10° W 18:32:34 25° NNW 18:37:21 10° NNE visible
14 Feb - 20:14:24 10° NW 20:17:09 13° N 20:19:49 10° NNE visible
14 Feb - 21:58:34 10° NNW 22:02:03 16° NNE 22:05:24 10° NE visible
14 Feb - 23:40:43 10° NNW 23:46:04 41° NE 23:50:59 10° ESE night (unlit)
15 Feb - 01:23:21 10° NW 01:28:31 41° WSW 01:33:13 10° S night (unlit)
15 Feb - 14:19:38 10° SE 14:22:13 13° ESE 14:24:48 10° ENE daylight
15 Feb - 15:57:38 10° SSW 16:03:37 67° ESE 16:09:34 10° NE daylight
15 Feb - 17:41:04 10° WSW 17:46:29 33° NW 17:51:50 10° NNE visible
15 Feb - 19:27:27 10° NW 19:30:44 15° NNW 19:33:58 10° NNE visible
15 Feb - 21:12:49 10° NNW 21:15:41 14° N 21:18:29 10° NE visible
15 Feb - 22:55:10 10° NNW 23:00:05 29° NE 23:04:38 10° E visible
16 Feb - 00:37:29 10° NW 00:43:03 71° WSW 00:48:04 10° SSE night (unlit)
16 Feb - 02:22:43 10° W 02:24:16 11° W 02:25:46 10° WSW night (unlit)
16 Feb - 15:12:31 10° S 15:18:07 42° ESE 15:23:43 10° NE daylight
16 Feb - 16:54:44 10° WSW 17:00:33 47° NW 17:06:18 10° NNE daylight
16 Feb - 18:40:26 10° WNW 18:44:24 18° NNW 18:48:19 10° NNE visible
16 Feb - 20:26:45 10° NNW 20:29:16 13° N 20:31:44 10° NNE visible
16 Feb - 22:09:38 10° NNW 22:13:57 21° NNE 22:18:01 10° ENE visible
